Wind_Speed
15 14 14 13 12 10 10 9 9 9 9 8 7 7 8 8 9 9 8 8 8 7 7 7 6 6 5 5 7 6 6 6 5 6 8 7 7 6 7 7 7 8
16 15 14 13 13 12 12 11 10 9 10 9 8 8 8 8 9 9 9 9 8 7 7 7 7 7 6 6 8 7 7 7 6 5 7 8 8 7 7 8 8 8
18 16 16 14 13 13 12 12 11 10 10 9 9 9 8 8 8 9 9 9 8 7 7 7 6 7 6 7 9 7 7 8 7 6 8 10 9 7 8 8 8 8
18 17 16 15 14 13 12 12 12 11 10 10 10 10 9 8 8 9 9 9 9 9 9 8 8 7 7 8 9 7 7 9 8 7 9 10 9 8 8 8 8 8
19 18 16 16 14 13 13 12 12 12 11 11 10 10 10 10 10 9 9 9 9 9 9 9 8 8 9 10 9 7 7 8 7 8 10 9 8 8 8 8 8 8
18 18 17 16 15 15 14 13 13 12 12 12 11 11 11 11 11 10 9 9 8 7 8 8 8 7 8 9 9 9 8 7 7 9 11 9 8 8 8 8 8 9
17 17 18 17 16 15 15 14 13 13 12 12 12 11 11 11 11 11 10 10 9 9 8 8 9 10 9 9 11 11 9 8 9 10 11 10 9 9 9 9 9 11
17 17 17 17 16 16 16 14 14 13 13 12 12 12 12 11 11 10 10 11 10 10 10 8 9 11 11 10 11 11 10 9 9 10 11 10 10 10 10 9 9 11
17 16 16 16 16 16 16 15 14 13 13 13 12 12 11 11 11 11 10 11 10 10 11 11 10 11 11 10 11 11 11 10 9 10 12 11 10 10 10 9 9 10
17 16 16 16 16 16 15 15 14 13 13 13 12 12 11 11 11 11 10 11 11 11 13 13 11 10 10 10 11 12 12 11 11 11 12 11 10 11 11 10 10 11
17 17 16 16 16 16 15 15 14 14 13 13 12 12 12 12 12 11 11 12 12 12 13 13 11 11 11 11 12 10 10 11 11 11 12 11 11 11 11 11 12 12
18 17 17 17 17 16 15 14 14 14 13 13 13 12 12 12 12 12 12 12 12 12 12 12 12 11 11 11 11 10 11 12 10 10 12 10 10 12 12 13 14 13
18 18 17 17 17 16 16 15 14 14 14 14 13 13 13 13 13 13 13 13 13 12 12 13 13 11 11 12 11 10 12 13 10 10 13 12 12 13 13 14 15 14
18 18 17 17 16 16 16 16 14 13 13 13 13 13 14 14 14 14 14 13 13 13 13 13 12 12 13 14 12 11 13 13 12 13 14 13 13 14 14 15 16 16
18 17 16 16 16 16 16 15 15 14 13 12 13 14 13 14 14 14 14 14 15 15 14 14 14 15 16 15 13 12 12 11 12 14 14 13 14 15 15 16 17 17
19 19 17 17 19 19 19 18 17 16 14 12 13 13 13 13 13 14 14 14 15 14 12 13 15 16 16 14 12 12 12 12 12 13 13 13 15 16 16 17 18 18
21 21 21 22 23 24 23 21 20 19 17 16 15 14 14 13 13 14 14 13 14 13 10 10 14 15 15 13 12 12 13 12 12 12 12 13 14 15 15 16 17 18
23 22 22 23 23 23 22 21 21 21 20 20 20 17 14 14 13 14 13 12 15 16 12 10 11 12 13 13 12 13 14 13 12 11 12 13 13 14 16 16 17 18
23 22 21 21 21 22 22 21 20 22 22 22 22 19 16 15 15 14 13 14 16 17 15 12 10 9 11 13 14 15 16 16 16 15 15 15 14 15 16 16 17 18
22 22 21 21 21 21 20 19 18 20 21 22 22 20 17 17 16 13 14 17 17 15 16 16 13 11 13 15 16 18 18 18 18 19 19 18 18 16 15 16 19 21
21 22 21 21 21 20 20 19 19 20 21 23 23 20 18 20 19 15 14 15 15 15 18 18 16 15 17 19 20 20 20 19 19 20 20 19 18 17 17 19 21 23
22 20 19 20 20 20 19 19 21 22 23 23 22 20 20 21 20 17 16 15 12 12 14 15 16 18 19 19 19 19 18 18 18 19 19 19 19 19 20 22 23 24
20 20 20 18 17 17 16 17 20 23 21 19 20 22 21 20 18 18 19 18 15 14 15 14 16 17 18 17 17 17 17 17 17 18 18 19 20 20 21 21 20 21
20 21 21 18 17 17 16 17 20 22 21 19 20 21 19 18 19 20 20 18 17 16 16 15 15 16 16 17 17 17 18 18 18 18 17 18 19 20 20 18 17 18
17 17 15 16 20 21 18 17 17 18 20 22 22 19 17 17 19 21 20 18 16 15 15 14 14 15 16 17 18 18 17 17 17 17 17 18 18 19 18 15 14 17
14 13 12 15 20 19 17 18 17 18 20 22 22 20 19 18 18 18 16 14 12 13 13 13 13 14 14 14 14 13 13 12 12 12 12 13 13 14 12 9 10 15
Wind_Direction
200 203 207 210 209 207 206 207 209 207 205 204 203 203 200 197 200 195 196 218 229 224 231 236 234 236 235 248 254 243 246 251 247 263 274 282 286 280 280 287 291 294
200 202 204 206 209 210 208 206 207 208 208 206 200 197 199 202 206 204 202 215 224 225 239 242 237 242 233 234 252 254 258 261 252 257 272 277 279 279 281 284 287 291
201 203 205 206 210 213 212 211 210 209 211 210 206 203 204 209 212 215 214 213 209 211 236 245 239 250 250 244 254 255 254 261 259 250 252 259 269 275 276 281 284 286
202 204 208 209 211 212 211 213 214 214 212 211 213 210 208 208 208 217 225 222 212 205 216 228 226 230 238 246 257 254 248 260 264 259 256 259 267 273 274 277 279 278
204 204 207 209 211 212 211 213 214 215 214 211 212 212 211 208 202 208 223 231 229 218 220 232 234 228 231 243 255 250 245 259 271 275 276 272 267 271 274 274 275 276
207 205 206 208 210 211 212 214 213 213 214 212 211 211 214 216 212 210 216 225 231 227 225 230 232 231 235 246 255 251 243 243 245 257 270 275 268 263 265 268 269 270
206 207 208 208 209 211 212 213 214 212 212 213 212 212 213 218 220 216 216 219 223 226 225 224 224 226 227 234 247 256 252 239 235 248 263 269 265 259 256 259 264 268
206 207 209 210 211 213 214 213 213 213 211 212 214 214 214 216 219 220 219 221 224 227 226 222 227 234 232 231 241 253 256 249 247 261 272 268 260 262 262 258 262 268
208 208 209 211 212 214 215 215 214 213 213 213 215 217 218 217 220 222 221 220 221 225 226 223 230 239 237 234 238 244 249 248 242 249 265 268 261 265 270 264 262 268
210 210 211 212 214 216 217 216 216 215 215 217 218 220 222 222 222 221 219 221 221 223 227 227 227 235 239 238 241 246 250 251 244 242 251 258 258 259 262 262 261 264
211 212 213 214 215 217 218 218 217 216 217 219 220 221 222 222 221 218 218 224 225 226 232 235 229 230 239 239 236 242 252 256 256 257 256 257 263 267 269 270 268 265
213 213 215 215 216 217 218 218 218 217 218 219 220 221 221 221 220 219 219 223 228 229 233 241 240 233 236 241 238 237 246 250 253 262 267 271 275 277 279 280 275 271
214 214 215 215 216 216 215 216 218 219 219 219 219 219 219 219 220 221 221 223 230 234 233 240 246 240 233 238 244 246 248 248 246 255 266 276 282 281 282 282 279 278
214 214 215 213 215 217 215 215 218 219 220 220 220 221 222 222 221 222 224 224 227 232 233 237 242 242 239 239 241 247 251 250 250 255 262 271 277 278 279 281 282 283
211 211 212 210 211 211 210 214 217 220 223 223 222 223 225 226 225 224 227 227 229 234 237 236 235 237 243 246 246 250 255 255 256 260 265 273 278 279 280 281 285 288
211 209 206 206 208 208 212 218 219 218 219 222 225 225 226 228 228 226 226 228 235 244 248 243 236 237 246 252 251 252 259 267 271 270 272 276 276 277 280 282 286 291
217 214 210 213 218 220 222 226 227 223 218 216 219 221 225 227 226 226 227 229 234 240 247 243 233 235 245 248 245 245 252 264 273 276 281 283 280 283 288 288 289 290
226 224 223 226 227 228 228 229 231 231 225 221 220 220 223 226 226 226 227 231 237 238 243 249 241 238 244 244 242 245 250 256 264 270 277 281 284 288 289 288 289 287
231 229 228 230 230 231 232 231 233 234 231 228 226 223 222 224 226 226 223 228 240 243 244 251 250 242 245 245 244 249 255 260 265 269 272 276 280 282 281 282 282 281
232 231 228 229 228 226 224 223 226 231 231 230 229 225 222 222 219 217 221 229 237 239 237 244 249 245 246 249 251 258 265 270 272 274 276 278 280 281 283 285 283 283
228 231 227 227 225 221 221 225 230 234 230 228 227 222 219 223 219 213 223 232 237 238 234 236 245 250 251 254 259 265 273 277 278 279 279 280 280 280 283 283 281 284
227 228 223 222 221 220 225 228 230 233 228 221 219 216 218 228 229 224 223 219 220 234 235 231 240 250 255 261 267 272 275 277 278 279 279 280 281 281 283 285 286 287
220 216 208 208 215 220 224 224 225 230 228 219 216 217 222 232 235 228 225 218 214 225 231 233 243 254 261 266 270 272 274 274 275 277 280 282 284 286 288 291 293 292
213 212 206 209 227 237 237 232 230 232 233 230 227 222 220 227 232 229 229 226 225 231 237 244 254 263 268 272 274 275 276 278 278 280 282 282 284 285 285 286 288 286
227 229 225 227 239 244 242 234 229 228 227 229 228 216 202 209 221 225 225 222 221 231 244 254 261 269 276 281 284 285 284 284 285 284 283 283 282 283 283 285 284 280
237 239 236 229 228 230 229 224 219 217 216 218 219 210 199 204 213 219 225 225 223 233 248 260 268 279 288 292 294 295 294 292 291 288 286 286 286 286 290 296 292 285
Height
1575 1576 1577 1578 1579 1580 1581 1582 1583 1584 1584 1585 1586 1586 1586 1587 1587 1588 1589 1589 1588 1589 1589 1589 1589 1589 1590 1590 1590 1590 1590 1590 1590 1590 1590 1590 1589 1590 1590 1590 1589 1589
1574 1575 1576 1577 1578 1579 1580 1581 1582 1583 1583 1584 1585 1585 1585 1586 1586 1586 1587 1587 1588 1588 1588 1588 1588 1588 1588 1589 1589 1589 1589 1589 1589 1590 1589 1589 1589 1589 1589 1589 1589 1588
1573 1574 1575 1576 1577 1578 1579 1580 1581 1581 1582 1583 1583 1584 1584 1585 1585 1585 1586 1586 1587 1587 1587 1587 1587 1587 1587 1588 1587 1588 1588 1588 1588 1588 1588 1588 1588 1588 1588 1588 1588 1588
1571 1573 1574 1575 1577 1578 1578 1579 1580 1580 1581 1582 1582 1583 1583 1584 1585 1584 1584 1585 1585 1586 1586 1586 1586 1587 1587 1587 1587 1587 1587 1587 1586 1587 1587 1586 1586 1587 1587 1587 1587 1587
1570 1571 1573 1574 1575 1576 1577 1578 1579 1579 1580 1581 1581 1582 1582 1583 1584 1584 1584 1584 1584 1584 1585 1585 1585 1585 1586 1585 1585 1586 1586 1586 1586 1585 1585 1585 1585 1586 1586 1586 1586 1586
1568 1569 1571 1572 1573 1575 1576 1577 1578 1578 1579 1580 1580 1581 1581 1581 1582 1583 1584 1583 1583 1584 1584 1584 1585 1585 1585 1584 1584 1584 1585 1585 1585 1584 1584 1584 1584 1584 1585 1585 1585 1584
1567 1568 1569 1571 1572 1573 1574 1575 1576 1577 1578 1579 1579 1580 1580 1581 1581 1581 1582 1583 1583 1583 1583 1584 1584 1584 1584 1584 1583 1583 1583 1583 1583 1583 1583 1583 1583 1583 1583 1583 1583 1583
1566 1567 1568 1569 1571 1572 1573 1574 1575 1576 1577 1578 1578 1579 1579 1580 1580 1581 1581 1581 1582 1582 1583 1583 1583 1582 1583 1583 1583 1582 1582 1582 1582 1582 1582 1581 1581 1581 1581 1581 1581 1581
1565 1566 1567 1568 1569 1571 1572 1573 1574 1574 1575 1576 1577 1578 1578 1579 1579 1580 1580 1580 1581 1581 1581 1581 1581 1581 1581 1581 1582 1581 1581 1581 1581 1581 1580 1580 1580 1580 1580 1580 1580 1580
1563 1564 1566 1567 1568 1570 1570 1572 1573 1574 1574 1575 1576 1577 1577 1578 1578 1579 1579 1579 1579 1579 1579 1579 1580 1580 1580 1580 1581 1580 1580 1580 1580 1580 1580 1580 1580 1580 1579 1579 1579 1579
1561 1562 1564 1565 1567 1568 1569 1570 1571 1572 1573 1574 1575 1575 1576 1576 1576 1577 1578 1577 1577 1578 1578 1577 1578 1578 1579 1579 1579 1580 1580 1579 1579 1579 1579 1580 1580 1579 1579 1579 1579 1579
1559 1561 1562 1563 1565 1566 1568 1569 1570 1571 1572 1572 1573 1574 1575 1575 1575 1575 1576 1576 1576 1576 1576 1576 1576 1577 1578 1578 1579 1579 1579 1578 1578 1578 1579 1579 1579 1579 1579 1579 1578 1578
1557 1559 1561 1562 1563 1564 1566 1567 1568 1570 1570 1571 1571 1572 1573 1573 1573 1573 1573 1574 1574 1575 1575 1575 1575 1576 1577 1577 1578 1578 1578 1577 1577 1577 1578 1578 1578 1578 1578 1578 1578 1578
1555 1557 1559 1560 1562 1563 1564 1565 1567 1568 1569 1569 1570 1570 1571 1571 1572 1572 1572 1572 1573 1574 1574 1574 1575 1575 1575 1576 1577 1577 1577 1577 1577 1577 1577 1577 1577 1577 1577 1577 1577 1577
1553 1555 1557 1558 1559 1561 1562 1563 1565 1566 1567 1568 1568 1569 1570 1570 1570 1571 1571 1571 1571 1571 1572 1572 1573 1573 1573 1574 1575 1575 1576 1576 1576 1576 1576 1576 1576 1576 1576 1576 1575 1575
1550 1552 1554 1555 1556 1557 1559 1560 1562 1563 1564 1565 1566 1567 1568 1568 1569 1569 1570 1570 1570 1571 1571 1571 1571 1571 1572 1573 1574 1574 1575 1575 1575 1575 1575 1575 1575 1575 1574 1574 1573 1573
1547 1549 1550 1551 1553 1555 1556 1558 1559 1560 1561 1562 1563 1564 1565 1566 1567 1567 1568 1569 1569 1568 1569 1569 1569 1570 1571 1572 1573 1573 1574 1574 1574 1574 1574 1574 1573 1573 1572 1572 1572 1571
1543 1545 1547 1548 1551 1553 1554 1555 1557 1557 1558 1559 1560 1561 1563 1564 1564 1565 1566 1567 1566 1565 1566 1567 1569 1570 1571 1571 1572 1572 1572 1572 1573 1573 1573 1572 1572 1572 1571 1570 1570 1569
1540 1542 1544 1546 1548 1550 1551 1553 1554 1555 1556 1557 1558 1559 1561 1561 1562 1563 1564 1565 1564 1564 1565 1566 1567 1569 1569 1569 1570 1570 1570 1571 1571 1571 1571 1571 1570 1570 1570 1570 1569 1567
1537 1539 1541 1543 1545 1547 1548 1550 1552 1553 1555 1556 1557 1558 1558 1558 1559 1560 1561 1562 1562 1562 1563 1563 1564 1566 1567 1567 1568 1568 1568 1569 1569 1568 1569 1568 1568 1568 1568 1568 1567 1565
1535 1536 1539 1540 1542 1545 1546 1548 1549 1551 1552 1553 1554 1555 1556 1556 1556 1558 1559 1560 1561 1559 1559 1560 1561 1563 1564 1565 1566 1566 1566 1566 1566 1566 1566 1566 1566 1566 1565 1565 1564 1563
1532 1534 1537 1538 1540 1542 1544 1545 1547 1548 1549 1551 1552 1553 1554 1554 1555 1556 1556 1558 1558 1556 1556 1558 1559 1561 1562 1563 1563 1563 1564 1564 1564 1564 1564 1564 1564 1564 1563 1562 1561 1560
1530 1532 1534 1536 1538 1540 1542 1544 1545 1546 1547 1549 1550 1551 1552 1554 1555 1554 1554 1554 1555 1555 1555 1557 1558 1559 1560 1561 1561 1561 1561 1561 1561 1562 1562 1562 1561 1561 1560 1560 1559 1558
1529 1530 1532 1535 1537 1538 1540 1541 1542 1544 1545 1546 1547 1548 1550 1552 1553 1552 1552 1553 1554 1554 1555 1556 1557 1557 1558 1559 1559 1559 1559 1559 1559 1559 1559 1559 1559 1558 1558 1558 1557 1556
1528 1529 1531 1534 1535 1535 1537 1538 1539 1541 1542 1543 1544 1545 1547 1549 1550 1550 1550 1550 1551 1552 1553 1554 1555 1555 1556 1557 1557 1558 1558 1557 1557 1557 1557 1557 1557 1556 1556 1556 1556 1554
1527 1529 1531 1532 1532 1533 1534 1535 1536 1538 1539 1540 1541 1542 1543 1546 1547 1548 1548 1548 1549 1551 1551 1552 1553 1554 1554 1555 1556 1556 1556 1556 1555 1555 1555 1555 1555 1554 1555 1555 1554 1552